FW9555 Weather Reports


Display with metric or nautical units.
time (UTC)temp
F
wind
direction
speed
MPH
gust
MPH
rain 1hr
in
rain 24hr
in
rain mn
in
humidity
%
barometer
mb
20260509192142 74 78 0.0 2.0 0.00 0.00 0.00 74 1013.5
20260509191641 74 74 0.0 1.0 0.00 0.00 0.00 73 1013.5
20260509191139 75 263 0.0 5.0 0.00 0.00 0.00 72 1013.7
20260509190635 75 74 0.0 2.0 0.00 0.00 0.00 72 1013.6
20260509190132 77 66 0.0 2.0 0.00 0.00 0.00 72 1013.6
20260509185630 76 71 1.0 2.0 0.00 0.00 0.00 72 1013.7
20260509185126 74 71 0.0 3.0 0.00 0.00 0.00 76 1013.8
20260509184624 72 265 0.0 6.0 0.00 0.00 0.00 74 1013.9
20260509184120 73 45 2.0 3.0 0.00 0.00 0.00 76 1013.8
20260509183616 73 63 0.0 1.0 0.00 0.00 0.00 76 1013.9
20260509183112 73 63 0.0 1.0 0.00 0.00 0.00 76 1013.9
20260509182608 72 33 0.0 4.0 0.00 0.00 0.00 75 1013.9
20260509182105 73 71 0.0 2.0 0.00 0.00 0.00 78 1013.9
20260509181603 72 83 0.0 0.0 0.00 0.00 0.00 78 1013.8
20260509181100 72 35 0.0 2.0 0.00 0.00 0.00 77 1014.1
20260509180556 72 60 0.0 3.0 0.00 0.00 0.00 79 1013.9
20260509180054 72 81 0.0 0.0 0.00 0.00 0.00 77 1014.2
20260509175549 72 294 0.0 2.0 0.00 0.00 0.00 80 1014.2
20260509175046 70 18 0.0 1.0 0.00 0.00 0.00 79 1014.5
20260509174542 70 40 0.0 2.0 0.00 0.00 0.00 79 1014.5
20260509174038 70 0 0.0 3.0 0.00 0.00 0.00 81 1014.4
20260509173532 70 317 4.0 4.0 0.00 0.00 0.00 78 1014.4
20260509173029 70 342 0.0 0.0 0.00 0.00 0.00 80 1014.3
20260509172526 69 342 0.0 0.0 0.00 0.00 0.00 80 1014.6
20260509172021 69 327 0.0 2.0 0.00 0.00 0.00 81 1014.8
20260509171518 69 66 0.0 3.0 0.00 0.00 0.00 81 1014.7
20260509171015 69 351 2.0 3.0 0.00 0.00 0.00 80 1014.9
20260509170510 69 323 4.0 4.0 0.00 0.00 0.00 79 1014.7
20260509170006 69 270 2.0 3.0 0.00 0.00 0.00 78 1014.9
20260509165505 70 60 0.0 4.0 0.00 0.00 0.00 79 1014.8
20260509165001 70 286 0.0 2.0 0.00 0.00 0.00 82 1015.2
20260509164457 70 66 0.0 5.0 0.00 0.00 0.00 78 1015.0
20260509163952 70 60 0.0 3.0 0.00 0.00 0.00 80 1014.8
20260509163451 69 288 2.0 5.0 0.00 0.00 0.00 80 1014.9
20260509162949 70 90 0.0 1.0 0.00 0.00 0.00 82 1015.1
20260509162448 69 85 2.0 2.0 0.00 0.00 0.00 79 1015.3
20260509161944 69 75 1.0 2.0 0.00 0.00 0.00 79 1015.2
20260509161441 70 278 1.0 2.0 0.00 0.00 0.00 81 1015.2
20260509160936 70 281 3.0 3.0 0.00 0.00 0.00 78 1015.5
20260509160432 70 90 0.0 1.0 0.00 0.00 0.00 81 1015.4
20260509155927 71 90 1.0 2.0 0.00 0.00 0.00 81 1015.5
20260509155424 71 300 0.0 1.0 0.00 0.00 0.00 84 1015.5
20260509154921 69 300 0.0 3.0 0.00 0.00 0.00 81 1015.7
20260509154417 68 240 0.0 2.0 0.00 0.00 0.00 83 1015.7
20260509153914 69 83 1.0 2.0 0.00 0.00 0.00 83 1015.5
20260509153411 68 11 0.0 2.0 0.00 0.00 0.00 84 1015.7
20260509152908 67 82 0.0 2.0 0.00 0.00 0.00 85 1015.7
20260509152404 66 74 0.0 2.0 0.00 0.00 0.00 85 1015.5
20260509151901 66 321 4.0 7.0 0.00 0.00 0.00 83 1015.5
20260509151356 68 191 0.0 2.0 0.00 0.00 0.00 83 1015.5
20260509150855 67 303 2.0 5.0 0.00 0.00 0.00 84 1015.1
20260509150353 67 69 0.0 3.0 0.00 0.00 0.00 85 1015.3
20260509145850 67 60 0.0 0.0 0.00 0.00 0.00 87 1015.3
20260509145344 66 81 0.0 2.0 0.00 0.00 0.00 88 1015.5
20260509144841 66 286 0.0 1.0 0.00 0.00 0.00 89 1015.4
20260509144338 65 66 0.0 2.0 0.00 0.00 0.00 88 1015.5
20260509143835 65 342 0.0 3.0 0.00 0.00 0.00 89 1015.3
20260509143333 65 90 0.0 3.0 0.00 0.00 0.00 89 1015.4
20260509142828 65 348 2.0 2.0 0.00 0.00 0.00 88 1015.4
20260509142325 65 69 0.0 0.0 0.00 0.00 0.00 89 1015.2
20260509141820 65 69 0.0 2.0 0.00 0.00 0.00 90 1015.5
20260509141318 65 277 0.0 2.0 0.00 0.00 0.00 91 1015.5
20260509140814 64 81 0.0 0.0 0.00 0.00 0.00 91 1015.5
20260509140312 64 0 0.0 1.0 0.00 0.00 0.00 92 1015.5
20260509135810 64 74 0.0 2.0 0.00 0.00 0.00 92 1015.5
20260509135307 64 66 0.0 0.0 0.00 0.00 0.00 92 1015.7
20260509134804 63 54 0.0 2.0 0.00 0.00 0.00 93 1015.8
20260509134301 63 352 0.0 2.0 0.00 0.00 0.00 93 1015.9
20260509133758 62 57 0.0 2.0 0.00 0.00 0.00 93 1015.8
20260509133254 63 90 1.0 3.0 0.00 0.00 0.00 93 1015.8
20260509132753 63 54 0.0 1.0 0.00 0.00 0.00 94 1015.8
20260509132252 62 110 0.0 2.0 0.00 0.00 0.00 94 1015.8
20260509131748 62 82 0.0 1.0 0.00 0.00 0.00 95 1015.9
20260509131245 61 66 0.0 1.0 0.00 0.00 0.00 95 1015.9
20260509130741 61 66 0.0 1.0 0.00 0.00 0.00 96 1016.0
20260509130236 61 300 0.0 0.0 0.00 0.00 0.00 96 1016.2
20260509125733 60 300 0.0 0.0 0.00 0.00 0.00 96 1016.3
20260509125230 60 172 0.0 0.0 0.00 0.00 0.00 97 1016.3
20260509124726 60 172 0.0 0.0 0.00 0.00 0.00 98 1016.1
20260509124223 59 75 0.0 0.0 0.00 0.00 0.00 99 1016.3
20260509123722 59 74 0.0 0.0 0.00 0.00 0.00 99 1016.2
20260509123218 58 74 0.0 2.0 0.00 0.00 0.00 99 1016.4
20260509122714 58 353 0.0 0.0 0.00 0.00 0.00 99 1016.4
20260509122211 58 74 0.0 1.0 0.00 0.00 0.00 99 1016.5
20260509121708 58 0 0.0 0.0 0.00 0.00 0.00 99 1016.5
20260509121206 58 0 0.0 1.0 0.00 0.00 0.00 99 1016.5
20260509120703 57 286 0.0 0.0 0.00 0.00 0.00 99 1016.3
20260509120201 57 90 0.0 1.0 0.00 0.00 0.00 99 1016.0
20260509115659 56 75 0.0 0.0 0.00 0.00 0.00 99 1016.4
20260509115155 55 35 0.0 1.0 0.00 0.00 0.00 99 1016.3
20260509114654 55 49 0.0 0.0 0.00 0.00 0.00 99 1016.2
20260509114153 55 74 0.0 0.0 0.00 0.00 0.00 99 1016.0
20260509113651 55 63 0.0 0.0 0.00 0.00 0.00 99 1015.8
20260509113147 55 63 0.0 1.0 0.00 0.00 0.00 99 1016.0
20260509112644 54 74 0.0 1.0 0.00 0.00 0.00 99 1016.5
20260509112141 53 0 0.0 0.0 0.00 0.00 0.00 99 1016.3
20260509111638 53 66 0.0 0.0 0.00 0.00 0.00 99 1016.4
20260509111135 53 23 0.0 0.0 0.00 0.00 0.00 99 1016.1
20260509110632 53 71 0.0 1.0 0.00 0.00 0.00 99 1016.3
20260509110129 53 29 0.0 1.0 0.00 0.00 0.00 99 1016.0
20260509105627 52 54 0.0 0.0 0.00 0.00 0.00 99 1016.3
20260509105125 52 14 0.0 1.0 0.00 0.00 0.00 99 1016.1
20260509104621 52 14 0.0 1.0 0.00 0.00 0.00 99 1016.1
20260509104118 51 69 0.0 2.0 0.00 0.00 0.00 99 1015.7
20260509103616 51 60 0.0 0.0 0.00 0.00 0.00 99 1016.0
20260509103114 51 60 0.0 0.0 0.00 0.00 0.00 99 1016.0
20260509102611 51 60 0.0 1.0 0.00 0.00 0.00 99 1015.8
20260509102108 51 71 0.0 0.0 0.00 0.00 0.00 99 1015.7
20260509101604 50 71 0.0 0.0 0.00 0.00 0.00 99 1016.0
20260509101101 50 71 0.0 0.0 0.00 0.00 0.00 99 1015.5
20260509100558 50 71 0.0 1.0 0.00 0.00 0.00 99 1015.4
20260509100055 50 78 0.0 0.0 0.00 0.00 0.00 99 1015.3
20260509095551 50 0 0.0 0.0 0.00 0.00 0.00 99 1015.3
20260509095049 50 0 0.0 1.0 0.00 0.00 0.00 99 1015.4
20260509094545 50 60 0.0 1.0 0.00 0.00 0.00 99 1015.4
20260509094043 50 71 0.0 1.0 0.00 0.00 0.00 99 1015.4
20260509093541 51 8 0.0 0.0 0.00 0.00 0.00 99 1015.4
20260509093038 51 14 0.0 1.0 0.00 0.00 0.00 99 1015.4
20260509092536 51 66 0.0 1.0 0.00 0.00 0.00 99 1015.3
20260509092035 51 81 0.0 0.0 0.00 0.00 0.00 99 1015.7
20260509091532 51 23 0.0 2.0 0.00 0.00 0.00 99 1015.4
20260509091028 51 74 0.0 0.0 0.00 0.00 0.00 99 1015.4
20260509090526 52 74 0.0 0.0 0.00 0.00 0.00 99 1015.3
20260509090023 52 75 0.0 1.0 0.00 0.00 0.00 99 1015.4
20260509085520 52 60 0.0 1.0 0.00 0.00 0.00 99 1015.3
20260509085016 51 0 0.0 2.0 0.00 0.00 0.00 99 1015.4
20260509084513 51 29 1.0 2.0 0.00 0.00 0.00 99 1015.0
20260509084010 51 20 0.0 1.0 0.00 0.00 0.00 99 1015.2
20260509083508 51 54 0.0 0.0 0.00 0.00 0.00 99 1015.2
20260509083004 51 29 0.0 1.0 0.00 0.00 0.00 98 1015.4
20260509082502 51 66 0.0 0.0 0.00 0.00 0.00 98 1015.3
20260509081958 51 66 0.0 1.0 0.00 0.00 0.00 98 1015.3
20260509081456 51 66 0.0 0.0 0.00 0.00 0.00 98 1015.3
20260509080952 51 66 0.0 1.0 0.00 0.00 0.00 98 1015.2
20260509080451 51 0 0.0 0.0 0.00 0.00 0.00 98 1015.3
20260509075948 51 0 0.0 0.0 0.00 0.00 0.00 98 1015.5
20260509075445 51 0 0.0 1.0 0.00 0.00 0.00 98 1015.8
20260509074943 51 15 0.0 1.0 0.00 0.00 0.00 98 1015.8
20260509074440 51 74 0.0 1.0 0.00 0.00 0.00 98 1015.9
20260509073936 51 0 0.0 1.0 0.00 0.00 0.00 98 1015.9
20260509073433 51 54 0.0 1.0 0.00 0.00 0.00 98 1015.7
20260509072929 51 29 0.0 1.0 0.00 0.00 0.00 98 1015.8
20260509072427 51 40 0.0 0.0 0.00 0.00 0.00 98 1016.0
20260509071923 51 40 0.0 2.0 0.00 0.00 0.00 98 1016.0
20260509071420 51 23 0.0 1.0 0.00 0.00 0.00 98 1016.1
20260509070918 51 49 0.0 2.0 0.00 0.00 0.00 98 1016.2
20260509070415 51 60 0.0 2.0 0.00 0.00 0.00 97 1016.1
20260509065909 52 15 0.0 0.0 0.00 0.00 0.00 98 1016.1
20260509065406 51 0 0.0 1.0 0.00 0.00 0.00 98 1016.1
20260509064902 51 23 0.0 0.0 0.00 0.00 0.00 97 1016.2
20260509064400 52 69 0.0 0.0 0.00 0.00 0.00 97 1016.6
20260509063858 52 69 0.0 0.0 0.00 0.00 0.00 97 1016.5
20260509063353 52 81 0.0 1.0 0.00 0.00 0.00 97 1016.6
20260509062851 52 0 0.0 0.0 0.00 0.00 0.00 97 1016.9
20260509062347 52 0 0.0 0.0 0.00 0.00 0.00 97 1016.7
20260509061845 52 74 0.0 0.0 0.00 0.00 0.00 97 1016.8
20260509061343 52 74 0.0 0.0 0.00 0.00 0.00 97 1016.8
20260509060839 53 0 0.0 0.0 0.00 0.00 0.00 97 1016.9
20260509060337 52 0 0.0 0.0 0.00 0.00 0.00 97 1016.9
20260509055832 52 0 0.0 1.0 0.00 0.00 0.00 97 1017.0
20260509055327 53 14 0.0 0.0 0.00 0.00 0.00 97 1017.0
20260509054825 53 14 0.0 0.0 0.00 0.00 0.00 97 1017.1
20260509054321 53 15 0.0 0.0 0.00 0.00 0.00 97 1017.3
20260509053820 53 20 0.0 1.0 0.00 0.00 0.00 97 1017.4
20260509053316 53 0 0.0 0.0 0.00 0.00 0.00 97 1017.5
20260509052815 53 90 0.0 0.0 0.00 0.00 0.00 97 1017.4
20260509052312 53 90 0.0 0.0 0.00 0.00 0.00 97 1017.5
20260509051810 53 8 0.0 0.0 0.00 0.00 0.00 96 1017.4
20260509051308 53 15 0.0 0.0 0.00 0.00 0.00 96 1017.4
20260509050804 53 23 0.0 0.0 0.00 0.00 0.00 96 1017.5
20260509050300 53 23 0.0 0.0 0.00 0.00 0.00 96 1017.6
20260509045758 53 23 0.0 0.0 0.00 0.00 0.00 96 1017.8
20260509045254 53 0 0.0 0.0 0.00 0.00 0.00 96 1017.7
20260509044752 54 0 0.0 0.0 0.00 0.00 0.00 96 1017.7
20260509044249 54 0 0.0 0.0 0.00 0.00 0.00 96 1018.0
20260509043745 54 26 0.0 0.0 0.00 0.00 0.00 96 1018.0
20260509043241 54 26 0.0 0.0 0.00 0.00 0.00 96 1017.9
20260509042738 54 26 0.0 0.0 0.00 0.00 0.00 96 1018.2
20260509042234 54 26 0.0 0.0 0.00 0.00 0.00 95 1017.9
20260509041731 54 23 0.0 0.0 0.00 0.00 0.00 95 1018.1
20260509041228 55 23 0.0 1.0 0.00 0.00 0.00 95 1018.0
20260509040726 55 35 0.0 0.0 0.00 0.00 0.00 95 1017.8
20260509040223 55 35 0.0 0.0 0.00 0.00 0.00 94 1017.9
20260509035719 55 352 0.0 0.0 0.00 0.00 0.00 94 1018.0
20260509035217 55 352 0.0 0.0 0.00 0.00 0.00 94 1018.1
20260509034714 55 352 0.0 0.0 0.00 0.00 0.00 94 1018.2
20260509034211 55 352 0.0 0.0 0.00 0.00 0.00 94 1018.1
20260509033708 56 352 0.0 0.0 0.00 0.00 0.00 94 1017.9
20260509033205 55 15 0.0 0.0 0.00 0.00 0.00 93 1017.9
20260509032702 55 15 0.0 0.0 0.00 0.00 0.00 93 1017.7
20260509032159 55 15 0.0 0.0 0.00 0.00 0.00 93 1017.6
20260509031657 56 15 0.0 0.0 0.00 0.00 0.00 93 1017.7
20260509031154 56 15 0.0 0.0 0.00 0.00 0.00 93 1017.8
20260509030652 56 15 0.0 0.0 0.00 0.00 0.00 93 1017.9
20260509030149 56 15 0.0 0.0 0.00 0.00 0.00 93 1017.8
20260509025645 56 311 0.0 0.0 0.00 0.00 0.00 92 1017.8
20260509025141 56 279 0.0 0.0 0.00 0.00 0.00 92 1017.9
20260509024636 56 345 0.0 0.0 0.00 0.00 0.00 92 1017.9
20260509024133 57 345 0.0 0.0 0.00 0.00 0.00 92 1018.0
20260509023631 57 345 0.0 0.0 0.00 0.00 0.00 92 1018.1
20260509023127 56 345 0.0 0.0 0.00 0.00 0.00 91 1018.0
20260509022623 56 345 0.0 0.0 0.00 0.00 0.00 91 1018.1
20260509022122 56 345 0.0 0.0 0.00 0.00 0.00 91 1018.2
20260509021618 57 0 0.0 0.0 0.00 0.00 0.00 91 1018.0
20260509021115 57 0 0.0 0.0 0.00 0.00 0.00 91 1018.0
20260509020614 57 0 0.0 0.0 0.00 0.00 0.00 90 1018.0
20260509020110 57 0 0.0 0.0 0.00 0.00 0.00 91 1017.9
20260509015609 57 0 0.0 0.0 0.00 0.00 0.00 90 1018.2
20260509015106 57 0 0.0 0.0 0.00 0.00 0.00 90 1018.2
20260509014603 57 0 0.0 0.0 0.00 0.00 0.00 90 1018.0
20260509014059 57 0 0.0 0.0 0.00 0.00 0.00 89 1017.9
20260509013556 58 0 0.0 0.0 0.00 0.00 0.00 89 1017.9
20260509013051 58 0 0.0 0.0 0.00 0.00 0.00 88 1018.1
20260509012549 58 0 0.0 0.0 0.00 0.00 0.00 88 1017.9
20260509012045 58 0 0.0 0.0 0.00 0.00 0.00 87 1017.8
20260509011543 58 0 0.0 0.0 0.00 0.00 0.00 87 1017.8
20260509011040 58 0 0.0 0.0 0.00 0.00 0.00 86 1017.5
20260509010538 58 0 0.0 0.0 0.00 0.00 0.00 86 1017.8
20260509010034 58 66 0.0 0.0 0.00 0.00 0.00 85 1017.7
20260509005533 59 66 0.0 0.0 0.00 0.00 0.00 85 1017.6
20260509005032 59 8 0.0 0.0 0.00 0.00 0.00 83 1017.5
20260509004530 59 8 0.0 0.0 0.00 0.00 0.00 82 1017.3
20260509004026 59 8 0.0 0.0 0.00 0.00 0.00 80 1017.5
20260509003525 60 8 0.0 0.0 0.00 0.00 0.00 80 1017.3
20260509003021 60 8 0.0 0.0 0.00 0.00 0.00 81 1017.3
20260509002519 60 8 0.0 0.0 0.00 0.00 0.00 77 1017.5
20260509002016 61 8 0.0 0.0 0.00 0.00 0.00 77 1017.3
20260509001514 61 8 0.0 0.0 0.00 0.00 0.00 75 1017.5
20260509001009 61 8 0.0 0.0 0.00 0.00 0.00 76 1017.3
20260509000508 62 8 0.0 0.0 0.00 0.00 0.00 78 1017.2
20260509000004 62 8 0.0 0.0 0.00 0.00 0.00 75 1017.3
20260508235502 63 8 0.0 0.0 0.00 0.00 0.00 75 1017.2
20260508234957 63 8 0.0 0.0 0.00 0.00 0.00 76 1016.8
20260508234455 64 8 0.0 0.0 0.00 0.00 0.00 73 1017.1
20260508233952 64 8 0.0 0.0 0.00 0.00 0.00 75 1017.2
20260508233452 65 8 0.0 0.0 0.00 0.00 0.00 76 1016.8
20260508232948 65 8 0.0 0.0 0.00 0.00 0.00 73 1017.0
20260508232445 65 8 0.0 0.0 0.00 0.00 0.00 66 1017.1
20260508231942 66 352 0.0 0.0 0.00 0.00 0.00 72 1017.1
20260508231439 66 352 0.0 0.0 0.00 0.00 0.00 71 1017.1
20260508230936 66 352 0.0 0.0 0.00 0.00 0.00 67 1016.9
20260508230433 67 352 0.0 0.0 0.00 0.00 0.00 64 1017.1
20260508225930 68 352 0.0 0.0 0.00 0.00 0.00 66 1017.3
20260508225427 68 352 0.0 0.0 0.00 0.00 0.00 65 1017.2
20260508224924 68 352 0.0 0.0 0.00 0.00 0.00 64 1017.3
20260508224422 69 352 0.0 0.0 0.00 0.00 0.00 64 1017.0
20260508223919 69 352 0.0 0.0 0.00 0.00 0.00 64 1017.3
20260508223417 69 352 0.0 0.0 0.00 0.00 0.00 59 1017.2
20260508222914 69 352 0.0 0.0 0.00 0.00 0.00 62 1017.4
20260508222411 69 59 2.0 3.0 0.00 0.00 0.00 55 1017.4
20260508221907 71 7 0.0 0.0 0.00 0.00 0.00 56 1017.3
20260508221403 74 297 0.0 1.0 0.00 0.00 0.00 53 1017.4
20260508220859 75 270 0.0 0.0 0.00 0.00 0.00 53 1017.2
20260508220356 74 327 0.0 2.0 0.00 0.00 0.00 49 1017.3
20260508215852 73 84 0.0 1.0 0.00 0.00 0.00 53 1017.2
20260508215349 74 90 0.0 1.0 0.00 0.00 0.00 56 1017.0
20260508214846 73 286 0.0 0.0 0.00 0.00 0.00 55 1017.3
20260508214344 73 286 0.0 0.0 0.00 0.00 0.00 55 1017.0
20260508213840 73 278 0.0 0.0 0.00 0.00 0.00 55 1017.0
20260508213337 73 294 0.0 0.0 0.00 0.00 0.00 59 1017.2
20260508212833 71 90 0.0 0.0 0.00 0.00 0.00 54 1017.0
20260508212330 73 294 0.0 1.0 0.00 0.00 0.00 55 1016.9
20260508211825 72 286 0.0 1.0 0.00 0.00 0.00 57 1017.2
20260508211321 72 270 0.0 0.0 0.00 0.00 0.00 54 1017.0
20260508210819 72 29 0.0 1.0 0.00 0.00 0.00 50 1017.3
20260508210315 72 40 0.0 0.0 0.00 0.00 0.00 56 1017.4
20260508205812 72 90 0.0 0.0 0.00 0.00 0.00 53 1017.5
20260508205308 74 90 0.0 2.0 0.00 0.00 0.00 49 1017.4
20260508204805 73 270 2.0 3.0 0.00 0.00 0.00 45 1017.6
20260508204302 72 353 0.0 2.0 0.00 0.00 0.00 49 1017.3
20260508203758 73 345 1.0 5.0 0.00 0.00 0.00 42 1017.2
20260508203254 73 328 2.0 6.0 0.00 0.00 0.00 45 1017.4
20260508202750 74 69 0.0 1.0 0.00 0.00 0.00 46 1017.3
20260508202247 76 289 0.0 0.0 0.00 0.00 0.00 48 1017.4
20260508201744 74 54 0.0 6.0 0.00 0.00 0.00 48 1017.7
20260508201241 74 66 0.0 2.0 0.00 0.00 0.00 50 1017.8
20260508200738 74 285 1.0 2.0 0.00 0.00 0.00 48 1017.9
20260508200234 73 327 4.0 5.0 0.00 0.00 0.00 42 1017.9
20260508195730 75 283 1.0 2.0 0.00 0.00 0.00 50 1017.7
20260508195227 75 70 0.0 2.0 0.00 0.00 0.00 49 1017.8
20260508194724 75 331 2.0 2.0 0.00 0.00 0.00 45 1018.1
20260508194220 73 34 2.0 4.0 0.00 0.00 0.00 43 1018.3
20260508193717 73 41 0.0 2.0 0.00 0.00 0.00 46 1018.4
20260508193214 73 75 0.0 2.0 0.00 0.00 0.00 51 1018.4
20260508192711 73 69 1.0 2.0 0.00 0.00 0.00 45 1018.3